DLH320 EDDM-LIRF

Flight info

Callsign DLH320
Flight time 1h 14m
Altitude 39000
Route TURBU7S/26L TURBU Y107 TOBSO DCT BAKOR DCT VESAL DCT LAMPO DCT ROKIB DCT VIC DCT KOPER DCT SUKOM DCT BAGNO DCT GAVRA DCT RITEB
Aircraft A388/J-SADE2E3FGHIJ3J4J5M1RWXY/LB1D1

Departure

Time 2026-05-06 17:45
Airport Munich Airport (EDDM)

Arrival

Time 2026-05-06 18:59
Airport Rome–Fiumicino Leonardo da Vinci International Airport (LIRF)
Time Latitude Longitude Altitude Speed Heading
2026-05-06 17:45 48.21986 11.77650 5889 ft 276 kts 149°
2026-05-06 17:45 48.20399 11.79262 5877 ft 276 kts 149°
2026-05-06 17:45 48.18810 11.80860 5880 ft 274 kts 152°
2026-05-06 17:46 48.17123 11.82140 5882 ft 270 kts 163°
2026-05-06 17:46 48.15347 11.83012 5883 ft 269 kts 166°
2026-05-06 17:46 48.13547 11.83878 5890 ft 272 kts 165°
2026-05-06 17:46 48.11753 11.84770 5889 ft 271 kts 165°
2026-05-06 17:47 48.09973 11.85662 5893 ft 271 kts 165°
2026-05-06 17:47 48.08173 11.86565 5892 ft 270 kts 165°
2026-05-06 17:47 48.06385 11.87461 5952 ft 271 kts 166°
2026-05-06 17:47 48.04612 11.88341 6350 ft 272 kts 166°
2026-05-06 17:48 48.02824 11.89220 7211 ft 273 kts 165°
2026-05-06 17:48 48.01007 11.90118 8178 ft 274 kts 165°
2026-05-06 17:48 47.99205 11.91023 9192 ft 273 kts 166°
2026-05-06 17:48 47.97403 11.91917 10098 ft 275 kts 166°
2026-05-06 17:49 47.95567 11.92821 10860 ft 280 kts 166°
2026-05-06 17:49 47.93707 11.93735 11642 ft 283 kts 166°
2026-05-06 17:49 47.91811 11.94536 12455 ft 282 kts 173°
2026-05-06 17:49 47.89864 11.94878 13222 ft 283 kts 182°
2026-05-06 17:50 47.87896 11.94829 13938 ft 285 kts 185°
2026-05-06 17:50 47.85899 11.94765 14622 ft 288 kts 184°
2026-05-06 17:50 47.83884 11.94720 15276 ft 291 kts 184°
2026-05-06 17:50 47.81852 11.94683 15927 ft 293 kts 184°
2026-05-06 17:51 47.79809 11.94647 16674 ft 293 kts 184°
2026-05-06 17:51 47.77762 11.94612 17295 ft 297 kts 184°
2026-05-06 17:51 47.75675 11.94575 17969 ft 299 kts 184°
2026-05-06 17:51 47.73587 11.94537 18556 ft 301 kts 184°
2026-05-06 17:52 47.71479 11.94498 19121 ft 304 kts 184°
2026-05-06 17:52 47.69359 11.94464 19671 ft 307 kts 185°
2026-05-06 17:52 47.67221 11.94428 20256 ft 307 kts 185°
2026-05-06 17:52 47.65078 11.94389 20800 ft 311 kts 185°
2026-05-06 17:53 47.62898 11.94348 21309 ft 315 kts 185°
2026-05-06 17:53 47.60698 11.94309 21840 ft 316 kts 184°
2026-05-06 17:53 47.58487 11.94272 22399 ft 318 kts 185°
2026-05-06 17:53 47.56302 11.94236 22997 ft 319 kts 185°
2026-05-06 17:54 47.54067 11.94196 23528 ft 321 kts 185°
2026-05-06 17:54 47.51829 11.94157 23973 ft 324 kts 185°
2026-05-06 17:54 47.49575 11.94119 24539 ft 324 kts 186°
2026-05-06 17:54 47.47275 11.94075 24714 ft 338 kts 186°
2026-05-06 17:55 47.44882 11.94026 24847 ft 351 kts 186°
2026-05-06 17:55 47.42401 11.93867 24944 ft 361 kts 190°
2026-05-06 17:55 47.39869 11.93372 25049 ft 373 kts 192°
2026-05-06 17:55 47.37270 11.92837 25351 ft 379 kts 192°
2026-05-06 17:56 47.34654 11.92311 25920 ft 380 kts 192°
2026-05-06 17:56 47.31996 11.91781 26346 ft 384 kts 192°
2026-05-06 17:56 47.29377 11.91260 26892 ft 386 kts 192°
2026-05-06 17:56 47.26710 11.90729 27472 ft 388 kts 192°
2026-05-06 17:57 47.24020 11.90193 28048 ft 390 kts 192°
2026-05-06 17:57 47.21319 11.89653 28586 ft 393 kts 192°
2026-05-06 17:57 47.18604 11.89112 29150 ft 395 kts 192°
2026-05-06 17:57 47.15882 11.88574 29827 ft 396 kts 193°
2026-05-06 17:58 47.13137 11.88030 30110 ft 401 kts 193°
2026-05-06 17:58 47.10389 11.87483 30620 ft 403 kts 193°
2026-05-06 17:58 47.07612 11.86934 31165 ft 405 kts 193°
2026-05-06 17:58 47.04803 11.86367 31610 ft 408 kts 193°
2026-05-06 17:59 47.01978 11.85787 31999 ft 411 kts 193°
2026-05-06 17:59 46.99169 11.84980 32454 ft 412 kts 197°
2026-05-06 17:59 46.96355 11.84079 32939 ft 414 kts 197°
2026-05-06 17:59 46.93538 11.83179 33392 ft 416 kts 197°
2026-05-06 18:00 46.90734 11.82286 33726 ft 420 kts 196°
2026-05-06 18:00 46.87828 11.81365 34084 ft 424 kts 196°
2026-05-06 18:00 46.84934 11.80449 34367 ft 429 kts 196°
2026-05-06 18:00 46.82006 11.79521 34731 ft 433 kts 196°
2026-05-06 18:01 46.79050 11.78586 35105 ft 436 kts 195°
2026-05-06 18:01 46.76085 11.77649 35530 ft 436 kts 195°
2026-05-06 18:01 46.73105 11.76708 35937 ft 438 kts 195°
2026-05-06 18:01 46.70151 11.75776 36234 ft 442 kts 195°
2026-05-06 18:02 46.68120 11.75135 36531 ft 442 kts 195°
2026-05-06 18:02 46.61068 11.73055 37410 ft 449 kts 191°
2026-05-06 18:02 46.57937 11.72636 37772 ft 453 kts 186°
2026-05-06 18:03 46.54781 11.72488 38171 ft 455 kts 185°
2026-05-06 18:03 46.51608 11.72332 38526 ft 457 kts 185°
2026-05-06 18:03 46.48426 11.72164 38825 ft 459 kts 185°
2026-05-06 18:03 46.45208 11.71985 38893 ft 466 kts 185°
2026-05-06 18:04 46.38785 11.71630 38886 ft 459 kts 185°
2026-05-06 18:04 46.32439 11.71291 38897 ft 460 kts 185°
2026-05-06 18:05 46.26042 11.70955 38898 ft 459 kts 185°
2026-05-06 18:05 46.19647 11.70618 38905 ft 460 kts 186°
2026-05-06 18:06 46.13253 11.70281 38903 ft 459 kts 186°
2026-05-06 18:06 46.06862 11.69943 38905 ft 459 kts 186°
2026-05-06 18:07 46.00452 11.69596 38913 ft 459 kts 186°
2026-05-06 18:07 45.94081 11.69254 38926 ft 459 kts 186°
2026-05-06 18:08 45.87690 11.68909 38927 ft 459 kts 186°
2026-05-06 18:08 45.81317 11.68569 38927 ft 458 kts 186°
2026-05-06 18:09 45.74931 11.68232 38922 ft 458 kts 186°
2026-05-06 18:09 45.68596 11.68017 38913 ft 460 kts 182°
2026-05-06 18:10 45.62190 11.68627 38899 ft 461 kts 180°
2026-05-06 18:10 45.55789 11.69238 38889 ft 460 kts 181°
2026-05-06 18:11 45.49402 11.69749 38904 ft 459 kts 181°
2026-05-06 18:11 45.43025 11.70233 38896 ft 459 kts 181°
2026-05-06 18:12 45.36654 11.70717 38911 ft 458 kts 181°
2026-05-06 18:12 45.30280 11.71200 38910 ft 458 kts 181°
2026-05-06 18:13 45.23919 11.71682 38909 ft 458 kts 181°
2026-05-06 18:13 45.17585 11.72160 38904 ft 457 kts 181°
2026-05-06 18:14 45.11204 11.72642 38906 ft 457 kts 182°
2026-05-06 18:14 45.04868 11.73118 38904 ft 457 kts 182°
2026-05-06 18:15 44.98531 11.73594 38903 ft 457 kts 182°
2026-05-06 18:15 44.92179 11.74070 38891 ft 457 kts 182°
2026-05-06 18:16 44.85816 11.74545 38891 ft 458 kts 182°
2026-05-06 18:16 44.79475 11.75017 38902 ft 458 kts 182°
2026-05-06 18:17 44.73091 11.75493 38893 ft 459 kts 182°
2026-05-06 18:17 44.66731 11.75965 38898 ft 458 kts 182°
2026-05-06 18:18 44.60292 11.76440 38886 ft 465 kts 182°
2026-05-06 18:18 44.53880 11.76916 38915 ft 463 kts 182°
2026-05-06 18:19 44.47425 11.77391 38916 ft 463 kts 182°
2026-05-06 18:19 44.41008 11.77864 38919 ft 463 kts 182°
2026-05-06 18:20 44.34608 11.78339 38919 ft 454 kts 183°
2026-05-06 18:20 44.28440 11.78794 38919 ft 445 kts 183°
2026-05-06 18:21 44.22197 11.79242 38919 ft 451 kts 183°
2026-05-06 18:21 44.15869 11.79699 38918 ft 458 kts 183°
2026-05-06 18:22 44.09503 11.80166 38921 ft 456 kts 183°
2026-05-06 18:22 44.03147 11.80629 38923 ft 458 kts 183°
2026-05-06 18:23 43.96797 11.81091 38926 ft 452 kts 183°
2026-05-06 18:23 43.90582 11.81543 38924 ft 450 kts 183°
2026-05-06 18:24 43.84320 11.81992 38927 ft 449 kts 183°
2026-05-06 18:24 43.78010 11.82587 38943 ft 462 kts 179°
2026-05-06 18:25 43.71643 11.84326 38905 ft 464 kts 173°
2026-05-06 18:25 43.68535 11.85354 38662 ft 457 kts 173°
2026-05-06 18:25 43.65423 11.86366 38057 ft 455 kts 173°
2026-05-06 18:26 43.62379 11.87342 37424 ft 453 kts 173°
2026-05-06 18:26 43.59321 11.88317 36729 ft 451 kts 173°
2026-05-06 18:26 43.56263 11.89288 36071 ft 450 kts 173°
2026-05-06 18:26 43.54200 11.89943 35633 ft 449 kts 174°
2026-05-06 18:27 43.51164 11.90907 34972 ft 447 kts 174°
2026-05-06 18:27 43.48139 11.91866 34310 ft 445 kts 174°
2026-05-06 18:27 43.45173 11.92807 33697 ft 441 kts 174°
2026-05-06 18:27 43.42222 11.93742 32990 ft 439 kts 174°
2026-05-06 18:28 43.39267 11.94677 32330 ft 435 kts 174°
2026-05-06 18:28 43.36311 11.95611 31649 ft 433 kts 173°
2026-05-06 18:28 43.33383 11.96535 31142 ft 428 kts 174°
2026-05-06 18:28 43.30500 11.97445 30985 ft 425 kts 174°
2026-05-06 18:29 43.24670 11.99274 30960 ft 430 kts 173°
2026-05-06 18:29 43.18870 12.01099 30589 ft 425 kts 173°
2026-05-06 18:30 43.16009 12.01999 30108 ft 421 kts 173°
2026-05-06 18:30 43.13158 12.02894 29433 ft 418 kts 173°
2026-05-06 18:30 43.10337 12.03778 28768 ft 414 kts 173°
2026-05-06 18:30 43.07535 12.04654 27804 ft 410 kts 173°
2026-05-06 18:31 43.04772 12.05520 27040 ft 404 kts 173°
2026-05-06 18:31 43.02054 12.06370 26286 ft 399 kts 173°
2026-05-06 18:31 42.99354 12.07212 25561 ft 396 kts 173°
2026-05-06 18:31 42.96668 12.08047 24822 ft 396 kts 173°
2026-05-06 18:32 42.94009 12.08873 24130 ft 395 kts 173°
2026-05-06 18:32 42.91335 12.09705 23425 ft 392 kts 173°
2026-05-06 18:32 42.88695 12.10526 22622 ft 387 kts 173°
2026-05-06 18:32 42.86070 12.11343 21829 ft 381 kts 172°
2026-05-06 18:33 42.83494 12.12142 21053 ft 376 kts 172°
2026-05-06 18:33 42.80967 12.12924 20318 ft 370 kts 171°
2026-05-06 18:33 42.78603 12.13656 19617 ft 366 kts 171°
2026-05-06 18:33 42.75998 12.14461 18861 ft 361 kts 171°
2026-05-06 18:34 42.73565 12.15214 18155 ft 357 kts 170°
2026-05-06 18:34 42.71170 12.16008 17359 ft 353 kts 166°
2026-05-06 18:34 42.68875 12.17207 16589 ft 352 kts 157°
2026-05-06 18:34 42.66762 12.18803 15830 ft 351 kts 152°
2026-05-06 18:35 42.64696 12.20496 15107 ft 347 kts 152°
2026-05-06 18:35 42.62626 12.22162 14384 ft 345 kts 152°
2026-05-06 18:35 42.60555 12.23817 13671 ft 342 kts 152°
2026-05-06 18:35 42.58516 12.25443 12874 ft 339 kts 153°
2026-05-06 18:36 42.56489 12.27060 12103 ft 337 kts 153°
2026-05-06 18:36 42.54486 12.28658 11465 ft 330 kts 153°
2026-05-06 18:36 42.52540 12.30212 11103 ft 317 kts 153°
2026-05-06 18:36 42.50702 12.31682 10941 ft 298 kts 153°
2026-05-06 18:37 42.48944 12.33084 10677 ft 289 kts 153°
2026-05-06 18:37 42.47210 12.34461 10293 ft 288 kts 153°
2026-05-06 18:37 42.45486 12.35828 10058 ft 287 kts 153°
2026-05-06 18:37 42.43762 12.37198 9992 ft 287 kts 154°
2026-05-06 18:38 42.42042 12.38562 10005 ft 288 kts 154°
2026-05-06 18:38 42.40316 12.39931 10002 ft 288 kts 153°
2026-05-06 18:38 42.38588 12.41302 10001 ft 288 kts 153°
2026-05-06 18:38 42.36867 12.42664 10004 ft 285 kts 154°
2026-05-06 18:39 42.35062 12.43745 10001 ft 281 kts 165°
2026-05-06 18:39 42.33223 12.44490 9974 ft 278 kts 166°
2026-05-06 18:39 42.31392 12.45248 9925 ft 271 kts 165°
2026-05-06 18:40 42.27929 12.46714 9599 ft 255 kts 165°
2026-05-06 18:40 42.26237 12.47428 9266 ft 253 kts 165°
2026-05-06 18:40 42.24554 12.48063 9007 ft 247 kts 175°
2026-05-06 18:40 42.22911 12.47807 8825 ft 236 kts 202°
2026-05-06 18:41 42.21590 12.46543 8520 ft 236 kts 229°
2026-05-06 18:41 42.20852 12.44571 8208 ft 238 kts 251°
2026-05-06 18:41 42.20397 12.42425 7920 ft 238 kts 251°
2026-05-06 18:41 42.19915 12.40293 7653 ft 236 kts 250°
2026-05-06 18:42 42.19433 12.38207 7470 ft 231 kts 251°
2026-05-06 18:42 42.19335 12.36035 7120 ft 239 kts 279°
2026-05-06 18:42 42.20097 12.34030 6849 ft 245 kts 309°
2026-05-06 18:42 42.21510 12.32770 6553 ft 252 kts 337°
2026-05-06 18:43 42.23210 12.32071 6251 ft 254 kts 341°
2026-05-06 18:43 42.24907 12.31427 5951 ft 254 kts 341°
2026-05-06 18:43 42.26595 12.30769 5682 ft 253 kts 341°
2026-05-06 18:43 42.28298 12.30081 5434 ft 254 kts 340°
2026-05-06 18:44 42.29972 12.29389 5464 ft 251 kts 340°
2026-05-06 18:44 42.31650 12.28685 5699 ft 252 kts 340°
2026-05-06 18:44 42.33330 12.27976 5946 ft 254 kts 340°
2026-05-06 18:44 42.35016 12.27266 6010 ft 254 kts 340°
2026-05-06 18:45 42.36703 12.26553 6001 ft 256 kts 339°
2026-05-06 18:45 42.38418 12.25828 6000 ft 258 kts 339°
2026-05-06 18:45 42.40104 12.25023 5988 ft 255 kts 326°
2026-05-06 18:45 42.41379 12.23463 6000 ft 243 kts 296°
2026-05-06 18:46 42.41880 12.21371 6027 ft 232 kts 265°
2026-05-06 18:46 42.41568 12.19308 6018 ft 223 kts 245°
2026-05-06 18:46 42.40978 12.17350 6014 ft 226 kts 244°
2026-05-06 18:46 42.40399 12.15363 6012 ft 226 kts 246°
2026-05-06 18:47 42.39870 12.13360 5991 ft 227 kts 248°
2026-05-06 18:47 42.39225 12.11440 5983 ft 224 kts 229°
2026-05-06 18:47 42.37968 12.10204 5992 ft 225 kts 199°
2026-05-06 18:47 42.36409 12.10075 6002 ft 228 kts 169°
2026-05-06 18:48 42.34910 12.10727 5998 ft 230 kts 164°
2026-05-06 18:48 42.33414 12.11401 5998 ft 230 kts 165°
2026-05-06 18:48 42.31864 12.12079 6000 ft 230 kts 165°
2026-05-06 18:48 42.30354 12.12727 6001 ft 229 kts 165°
2026-05-06 18:49 42.28847 12.13368 6000 ft 222 kts 165°
2026-05-06 18:49 42.27418 12.13977 5998 ft 209 kts 166°
2026-05-06 18:49 42.26021 12.14568 6003 ft 214 kts 165°
2026-05-06 18:49 42.24582 12.15172 6003 ft 217 kts 165°
2026-05-06 18:50 42.23138 12.15781 6004 ft 218 kts 165°
2026-05-06 18:50 42.21691 12.16391 6005 ft 218 kts 165°
2026-05-06 18:50 42.20241 12.17007 6022 ft 215 kts 165°
2026-05-06 18:50 42.18809 12.17616 6003 ft 218 kts 165°
2026-05-06 18:51 42.17370 12.18223 5933 ft 214 kts 165°
2026-05-06 18:51 42.15961 12.18812 5438 ft 211 kts 166°
2026-05-06 18:51 42.14522 12.19051 4800 ft 207 kts 182°
2026-05-06 18:51 42.13129 12.18697 3999 ft 204 kts 193°
2026-05-06 18:52 42.11766 12.18249 3309 ft 205 kts 192°
2026-05-06 18:52 42.10390 12.17826 2779 ft 200 kts 191°
2026-05-06 18:52 42.09033 12.17421 2519 ft 201 kts 191°
2026-05-06 18:52 42.07674 12.17024 2476 ft 201 kts 188°
2026-05-06 18:53 42.06293 12.17040 2478 ft 193 kts 169°
2026-05-06 18:53 42.05057 12.17493 2479 ft 176 kts 163°
2026-05-06 18:53 42.03924 12.17998 2478 ft 170 kts 163°
2026-05-06 18:53 42.02796 12.18473 2474 ft 170 kts 164°
2026-05-06 18:54 42.01719 12.18929 2498 ft 150 kts 162°
2026-05-06 18:54 42.00772 12.19331 2501 ft 138 kts 162°
2026-05-06 18:54 41.99872 12.19708 2500 ft 134 kts 162°
2026-05-06 18:54 41.98990 12.20081 2506 ft 132 kts 162°
2026-05-06 18:55 41.98109 12.20453 2496 ft 133 kts 163°
2026-05-06 18:55 41.97213 12.20831 2500 ft 134 kts 163°
2026-05-06 18:55 41.96330 12.21202 2436 ft 133 kts 163°
2026-05-06 18:55 41.95448 12.21575 2267 ft 132 kts 164°
2026-05-06 18:56 41.94580 12.21946 2095 ft 131 kts 163°
2026-05-06 18:56 41.93718 12.22308 1909 ft 129 kts 164°
2026-05-06 18:56 41.92873 12.22660 1747 ft 129 kts 164°
2026-05-06 18:56 41.92003 12.23029 1571 ft 129 kts 164°
2026-05-06 18:57 41.91146 12.23388 1387 ft 131 kts 163°
2026-05-06 18:57 41.90272 12.23758 1218 ft 133 kts 163°
2026-05-06 18:57 41.89395 12.24132 1035 ft 131 kts 162°
2026-05-06 18:57 41.88521 12.24513 852 ft 135 kts 162°
2026-05-06 18:58 41.87632 12.24895 662 ft 134 kts 165°
2026-05-06 18:58 41.86733 12.25234 486 ft 132 kts 161°
2026-05-06 18:58 41.85867 12.25611 329 ft 133 kts 161°
2026-05-06 18:58 41.84975 12.25986 145 ft 134 kts 161°
2026-05-06 18:59 41.84077 12.26374 25 ft 136 kts 161°
2026-05-06 18:59 41.83342 12.26692 22 ft 78 kts 164°
2026-05-06 18:59 41.83110 12.26784 23 ft 0 kts 163°
2026-05-06 18:59 41.83105 12.26786 22 ft 3 kts 163°
2026-05-06 19:00 41.83040 12.26811 22 ft 16 kts 164°
2026-05-06 19:00 41.82888 12.26855 25 ft 28 kts 173°
2026-05-06 19:00 41.82658 12.26853 24 ft 37 kts 194°
2026-05-06 19:00 41.82491 12.26804 19 ft 35 kts 191°
2026-05-06 19:01 41.82202 12.26827 15 ft 29 kts 164°
2026-05-06 19:01 41.82028 12.26902 17 ft 24 kts 162°
2026-05-06 19:01 41.81876 12.26955 17 ft 21 kts 178°
2026-05-06 19:01 41.81745 12.26919 22 ft 18 kts 188°
2026-05-06 19:02 41.81633 12.26931 25 ft 15 kts 162°
2026-05-06 19:02 41.81529 12.26975 25 ft 16 kts 162°
2026-05-06 19:02 41.81423 12.27019 26 ft 16 kts 163°
2026-05-06 19:02 41.81318 12.27063 23 ft 17 kts 162°
2026-05-06 19:03 41.81204 12.27109 23 ft 17 kts 163°
2026-05-06 19:03 41.81091 12.27155 21 ft 17 kts 162°
2026-05-06 19:03 41.80974 12.27206 15 ft 18 kts 165°
2026-05-06 19:03 41.80853 12.27211 14 ft 17 kts 192°
2026-05-06 19:04 41.80772 12.27127 15 ft 15 kts 250°
2026-05-06 19:04 41.80731 12.26979 13 ft 19 kts 249°
2026-05-06 19:04 41.80685 12.26806 16 ft 20 kts 249°
2026-05-06 19:04 41.80637 12.26632 18 ft 21 kts 249°
2026-05-06 19:05 41.80586 12.26450 23 ft 21 kts 249°
2026-05-06 19:05 41.80532 12.26256 21 ft 23 kts 251°
2026-05-06 19:05 41.80476 12.26045 22 ft 24 kts 249°
2026-05-06 19:05 41.80414 12.25828 17 ft 25 kts 249°
2026-05-06 19:06 41.80353 12.25611 22 ft 25 kts 249°
2026-05-06 19:06 41.80269 12.25442 24 ft 20 kts 203°
2026-05-06 19:06 41.80156 12.25368 28 ft 16 kts 229°
2026-05-06 19:06 41.80105 12.25220 25 ft 19 kts 258°
2026-05-06 19:07 41.80104 12.25041 26 ft 20 kts 281°
2026-05-06 19:07 41.80110 12.24911 25 ft 22 kts 261°
2026-05-06 19:07 41.80048 12.24639 17 ft 24 kts 249°
2026-05-06 19:07 41.79984 12.24425 14 ft 25 kts 248°
2026-05-06 19:08 41.79916 12.24232 17 ft 15 kts 202°
2026-05-06 19:08 41.79847 12.24255 17 ft 10 kts 161°
2026-05-06 19:08 41.79809 12.24240 17 ft 7 kts 236°
2026-05-06 19:08 41.79779 12.24171 17 ft 10 kts 242°
2026-05-06 19:09 41.79760 12.24153 21 ft 2 kts 161°
2026-05-06 19:09 41.79733 12.24163 19 ft 5 kts 171°
2026-05-06 19:09 41.79702 12.24172 20 ft 0 kts 162°
2026-05-06 19:10 41.79699 12.24174 19 ft 2 kts 162°
2026-05-06 19:10 41.79693 12.24176 22 ft 0 kts 161°